FW1643 Weather Reports


time (UTC)temp
C
wind
direction
speed
KPH
gust
KPH
rain 1hr
cm
rain 24hr
cm
rain mn
cm
humidity
%
barometer
mb
20260906110033 20 282 0.0 0.0 0.00 0.00 0.00 56 987.2
20260906104530 20 338 0.0 0.0 0.00 0.00 0.00 56 987.1
20260906103029 21 270 0.0 0.0 0.00 0.00 0.00 54 987.1
20260906101530 22 335 0.0 0.0 0.00 0.00 0.00 52 987.1
20260906100029 22 316 0.0 0.0 0.00 0.00 0.00 53 987.0
20260906094520 21 265 0.0 0.0 0.00 0.00 0.00 55 986.9
20260906093033 21 328 0.0 0.0 0.00 0.00 0.00 55 986.9
20260906091518 21 270 0.0 0.0 0.00 0.00 0.00 57 986.8
20260906084514 21 297 0.0 0.0 0.00 0.00 0.00 55 986.9
20260906083013 21 278 0.0 0.0 0.00 0.00 0.00 55 986.8
20260906081512 21 270 0.0 0.0 0.00 0.00 0.00 56 986.9
20260906080011 21 280 0.0 0.0 0.00 0.00 0.00 57 986.9
20260906074510 20 286 0.0 0.0 0.00 0.00 0.00 58 987.0
20260906073008 21 308 0.0 0.0 0.00 0.00 0.00 58 986.9
20260906071508 21 282 0.0 0.0 0.00 0.00 0.00 61 987.1
20260906070007 20 270 0.0 0.0 0.00 0.00 0.00 60 987.2
20260906064507 20 316 0.0 0.0 0.00 0.00 0.00 61 987.1
20260906063005 20 295 0.0 0.0 0.00 0.00 0.00 62 987.1
20260906061504 20 299 0.0 0.0 0.00 0.00 0.00 63 987.3
20260906060003 20 284 0.0 0.0 0.00 0.00 0.00 64 987.2
20260906054501 20 270 0.0 0.0 0.00 0.00 0.00 64 987.1
20260906053059 20 270 0.0 0.0 0.00 0.00 0.00 65 987.2
20260906051603 19 270 0.0 0.0 0.00 0.00 0.00 66 987.1
20260906050104 18 281 0.0 0.0 0.00 0.00 0.00 68 987.0
20260906044551 17 287 0.0 0.0 0.00 0.00 0.00 71 986.9
20260906043052 16 291 0.0 0.0 0.00 0.00 0.00 73 987.1
20260906041544 15 277 0.0 0.0 0.00 0.00 0.00 77 986.9
20260906040042 13 282 0.0 0.0 0.00 0.00 0.00 79 986.8
20260906034605 12 270 0.0 0.0 0.00 0.00 0.00 84 986.8
20260906033039 11 251 0.0 0.0 0.00 0.00 0.00 86 986.7
20260906031546 10 270 0.0 0.0 0.00 0.00 0.00 85 986.5
20260906030037 11 270 0.0 0.0 0.00 0.00 0.00 85 986.5
20260906024536 11 265 0.0 0.0 0.00 0.00 0.00 85 986.4
20260906023035 11 265 0.0 0.0 0.00 0.00 0.00 86 986.4
20260906021534 11 270 0.0 0.0 0.00 0.00 0.00 86 986.3
20260906020032 11 274 0.0 0.0 0.00 0.00 0.00 86 986.5
20260906014530 11 270 0.0 0.0 0.00 0.00 0.00 85 986.4
20260906013040 11 279 0.0 0.0 0.00 0.00 0.00 85 986.5
20260906011528 11 281 0.0 0.0 0.00 0.00 0.00 86 986.4
20260906010029 11 270 0.0 0.0 0.00 0.00 0.00 86 986.5
20260906004524 11 270 0.0 0.0 0.00 0.00 0.00 86 986.5
20260906003023 11 270 0.0 0.0 0.00 0.00 0.00 86 986.3
20260906001522 11 265 0.0 0.0 0.00 0.00 0.00 84 986.4
20260906000019 11 260 0.0 0.0 0.00 0.00 0.00 84 986.5
20260905234516 12 250 0.0 0.0 0.00 0.00 0.00 83 986.5
20260905233013 12 253 0.0 0.0 0.00 0.00 0.00 82 986.5
20260905231521 13 280 0.0 0.0 0.00 0.00 0.00 82 986.4
20260905230009 13 278 0.0 0.0 0.00 0.00 0.00 83 986.4
20260905224507 13 282 0.0 0.0 0.00 0.00 0.00 82 986.5
20260905223003 13 274 0.0 0.0 0.00 0.00 0.00 81 986.5
20260905221601 14 278 0.0 0.0 0.00 0.00 0.00 80 986.3
20260905220105 15 290 0.0 0.0 0.00 0.00 0.00 79 986.2
20260905214553 15 296 0.0 0.0 0.00 0.00 0.00 79 986.2
20260905213051 16 303 0.0 0.0 0.00 0.00 0.00 78 986.2
20260905211548 16 289 0.0 0.0 0.00 0.00 0.00 77 986.2
20260905210056 16 292 0.0 0.0 0.00 0.00 0.00 77 986.1
20260905204552 16 290 0.0 0.0 0.00 0.00 0.00 77 986.0
20260905203058 16 299 0.0 0.0 0.00 0.00 0.00 77 986.0
20260905201542 16 293 0.0 0.0 0.00 0.00 0.00 77 985.7
20260905200043 16 301 0.0 0.0 0.00 0.00 0.00 76 985.5
20260905194539 16 290 0.0 0.0 0.00 0.00 0.00 75 985.5
20260905193036 16 270 0.0 0.0 0.00 0.00 0.00 74 985.5
20260905191539 17 284 0.0 0.0 0.00 0.00 0.00 73 985.6
20260905190034 17 270 0.0 0.0 0.00 0.00 0.00 73 985.7
20260905184540 17 279 0.0 0.0 0.00 0.00 0.00 74 985.6
20260905183030 17 286 0.0 0.0 0.00 0.00 0.00 73 985.6
20260905181528 17 292 0.0 0.0 0.00 0.00 0.00 74 985.7
20260905180025 17 270 0.0 0.0 0.00 0.00 0.00 74 985.7
20260905174524 18 287 0.0 0.0 0.00 0.00 0.00 74 985.8
20260905173020 18 289 0.0 0.0 0.00 0.00 0.00 73 985.7
20260905171527 18 282 0.0 0.0 0.00 0.00 0.00 73 985.7
20260905170017 19 284 0.0 0.0 0.00 0.00 0.00 71 985.7
20260905163032 20 301 0.0 0.0 0.00 0.00 0.00 70 985.2
20260905161526 20 279 0.0 0.0 0.00 0.00 0.00 71 985.0
20260905160026 21 3 0.0 0.0 0.00 0.00 0.00 70 984.8
20260905154525 22 357 0.0 0.0 0.00 0.00 0.00 65 984.6
20260905153025 22 336 0.0 0.0 0.00 0.00 0.00 60 984.0
20260905151525 23 301 0.0 0.0 0.00 0.00 0.00 60 983.8
20260905150036 23 270 0.0 0.0 0.00 0.00 0.00 58 983.8
20260905144523 23 282 0.0 0.0 0.00 0.00 0.00 57 983.9
20260905143023 23 290 0.0 0.0 0.00 0.00 0.00 57 983.6
20260905141523 24 270 0.0 0.0 0.00 0.00 0.00 57 983.6
20260905140022 23 285 0.0 0.0 0.00 0.00 0.00 58 983.6
20260905134524 24 280 0.0 1.6 0.00 0.00 0.00 57 983.6
20260905133022 24 291 0.0 0.0 0.00 0.00 0.00 58 983.7
20260905131532 24 260 0.0 0.0 0.00 0.00 0.00 57 983.5
20260905130019 25 270 0.0 1.6 0.00 0.00 0.00 57 983.4
20260905124517 25 260 0.0 4.8 0.00 0.00 0.00 57 983.5
20260905123016 24 260 0.0 0.0 0.00 0.00 0.00 59 983.8
20260905121515 24 265 0.0 1.6 0.00 0.00 0.00 61 983.8
20260905120021 24 251 0.0 1.6 0.00 0.00 0.00 61 983.8
20260905114516 24 270 0.0 0.0 0.00 0.00 0.00 63 983.9
20260905113011 25 270 0.0 1.6 0.00 0.00 0.00 59 983.8
20260905111508 24 270 0.0 0.0 0.00 0.00 0.00 61 983.7